Springfield, IL

3:23 PM CST on December 08, 2019 (GMT -0600)
Capital

Weather History for KSPI - October, 2019

Change the Weather History Date:

Wednesday, October 9, 2019

  Actual Average Record
Temperature  
Mean Temperature 59 °F 57 °F  
Max Temperature 74 °F 69 °F 88 °F (1938)
Min Temperature 43 °F 46 °F 25 °F (2000)
Degree Days  
Heating Degree Days 6 9  
Month to date heating degree days 43 68  
Since 1 July heating degree days 44 149  
Cooling Degree Days 0 1  
Month to date cooling degree days 32 11  
Year to date cooling degree days 1309 1110  
Growing Degree Days 8 (Base 50)    
Moisture  
Dew Point 45 °F    
Average Humidity 61    
Maximum Humidity 86    
Minimum Humidity 35    
Precipitation  
Precipitation 0.00 in 0.10 in 1.20 in (2003)
Month to date precipitation 0.21 0.89  
Year to date precipitation 40.76 29.44  
Snow  
Snow 0.00 in 0.00 in 0.00 in ()
Month to date snowfall 0.0 0.0  
Since 1 July snowfall 0.0 0.0  
Since 1 September snowfall 0.0 0.0  
Snow Depth 0.00 in    
Sea Level Pressure  
Sea Level Pressure 30.08 in    
Wind  
Wind Speed 6 mph (SE)    
Max Wind Speed 15 mph    
Max Gust Speed 21 mph    
Visibility 10 miles    
Events      
T = Trace of Precipitation, MM = Missing Value Source: NWS Daily Summary

Daily Weather History Graph

Daily Weather History Graph

Search for Another Location

Airport or City:

Astronomy

Oct. 09, 2019 Rise Set
Actual Time 7:02 AM CDT 6:28 PM CDT
Civil Twilight 6:35 AM CDT 6:55 PM CDT
Nautical Twilight 6:04 AM CDT 7:26 PM CDT
Astronomical Twilight 5:32 AM CDT 7:58 PM CDT
Moon 5:00 PM CDT (10/9) 2:49 AM CDT (10/9)
Length of Visible Light 12h 20m
Length of Day
11h 26m
Waxing Gibbous, 85% of the Moon is Illuminated
Oct 9
Waxing Gibbous
Oct 13
Full
Oct 21
Last Quarter
Oct 27
New
Nov 4
First Quarter

Hourly Weather History & Observations

Time (CDT) Temp. Windchill Dew Point Humidity Pressure Visibility Wind Dir Wind Speed Gust Speed Precip Events Conditions
12:52 AM 46.9 °F - 42.1 °F 83% 30.11 in 10.0 mi Calm Calm - N/A   Clear
1:52 AM 46.9 °F - 42.1 °F 83% 30.11 in 10.0 mi Calm Calm - N/A   Clear
2:52 AM 46.0 °F - 43.0 °F 89% 30.11 in 8.0 mi Calm Calm - N/A   Clear
3:52 AM 46.0 °F - 41.0 °F 83% 30.10 in 10.0 mi Calm Calm - N/A   Clear
4:52 AM 44.1 °F 42.5 °F 39.9 °F 85% 30.11 in 10.0 mi East 3.5 mph - N/A   Clear
5:52 AM 45.0 °F - 39.9 °F 82% 30.12 in 10.0 mi Calm Calm - N/A   Clear
6:52 AM 44.1 °F 42.5 °F 39.9 °F 85% 30.13 in 10.0 mi East 3.5 mph - N/A   Clear
7:52 AM 48.9 °F - 43.0 °F 80% 30.13 in 10.0 mi ESE 3.5 mph - N/A   Clear
8:52 AM 55.0 °F - 46.0 °F 72% 30.14 in 10.0 mi ESE 4.6 mph - N/A   Clear
9:52 AM 62.1 °F - 45.0 °F 53% 30.15 in 10.0 mi SSE 5.8 mph - N/A   Clear
10:52 AM 66.0 °F - 46.0 °F 48% 30.14 in 10.0 mi SE 8.1 mph - N/A   Clear
11:52 AM 69.1 °F - 45.0 °F 42% 30.14 in 10.0 mi SE 9.2 mph - N/A   Clear
12:52 PM 72.0 °F - 46.0 °F 40% 30.11 in 10.0 mi SE 9.2 mph - N/A   Clear
1:52 PM 72.0 °F - 43.0 °F 35% 30.05 in 10.0 mi SE 10.4 mph - N/A   Clear
2:52 PM 72.0 °F - 44.1 °F 37% 30.05 in 10.0 mi South 9.2 mph - N/A   Clear
3:52 PM 72.0 °F - 44.1 °F 37% 30.03 in 10.0 mi SE 8.1 mph - N/A   Clear
4:52 PM 70.0 °F - 46.9 °F 44% 30.03 in 10.0 mi SE 6.9 mph - N/A   Clear
5:52 PM 68.0 °F - 48.0 °F 49% 30.01 in 10.0 mi East 6.9 mph - N/A   Clear
6:52 PM 64.0 °F - 48.0 °F 56% 30.04 in 10.0 mi SE 5.8 mph - N/A   Clear
7:52 PM 63.0 °F - 48.0 °F 58% 30.02 in 10.0 mi ESE 8.1 mph - N/A   Clear
8:52 PM 64.0 °F - 46.0 °F 52% 30.02 in 10.0 mi SE 8.1 mph - N/A   Clear
9:52 PM 62.1 °F - 46.9 °F 58% 30.01 in 10.0 mi ESE 11.5 mph - N/A   Clear
10:52 PM 64.0 °F - 48.0 °F 56% 30.03 in 10.0 mi WSW 3.5 mph - N/A   Partly Cloudy
11:52 PM 62.1 °F - 48.9 °F 62% 30.02 in 10.0 mi ESE 9.2 mph - N/A   Clear